Santiago, Dominican Republic

10:05 AM AST on May 25, 2017 (GMT -0400)
Cibao International

Weather History for MDST - March, 2014

Change the Weather History Date:

Friday, March 28, 2014

  Actual Average Record
Temperature  
Mean Temperature 78 °F -  
Max Temperature 88 °F 88 °F 91 °F (2002)
Min Temperature 69 °F 68 °F 62 °F (2009)
Cooling Degree Days 14    
Growing Degree Days 28 (Base 50)    
Moisture  
Dew Point 70 °F    
Average Humidity 82    
Maximum Humidity 100    
Minimum Humidity 55    
Precipitation  
Precipitation 0.00 in 0.13 in - ()
Sea Level Pressure  
Sea Level Pressure 30.07 in    
Wind  
Wind Speed 11 mph ()    
Max Wind Speed 148 mph    
Max Gust Speed -    
Visibility 6.1 miles    
Events Rain    
Averages and records for this station are not official NWS values.
T = Trace of Precipitation, MM = Missing Value Source: Averaged Metar Reports

Daily Weather History Graph

Daily Weather History Graph

Search for Another Location

Airport or City:

Trip Planner

Search our weather history database for the weather conditions in past years. The results will help you decide how hot, cold, wet, or windy it might be!

Date:

Astronomy

Mar. 28, 2014 Rise Set
Actual Time 6:40 AM AST 6:55 PM AST
Civil Twilight 6:18 AM AST 7:17 PM AST
Nautical Twilight 5:52 AM AST 7:43 PM AST
Astronomical Twilight 5:26 AM AST 8:09 PM AST
Moon 4:50 AM AST (3/28) 5:02 PM AST (3/28)
Length of Visible Light 12h 59m
Length of Day
12h 15m
Waning Crescent, 6% of the Moon is Illuminated
Mar 28
Waning Crescent
Mar 30
New
Apr 7
First Quarter
Apr 15
Full
Apr 22
Last Quarter

Hourly Weather History & Observations

Time (AST) Temp. Heat Index Dew Point Humidity Pressure Visibility Wind Dir Wind Speed Gust Speed Precip Events Conditions
12:00 AM 75.2 °F - 69.8 °F 83% 30.12 in 6.2 mi ESE 11.5 mph - N/A   Scattered Clouds
1:00 AM 73.4 °F - 68.0 °F 83% 30.12 in 6.2 mi ESE 6.9 mph - N/A   Scattered Clouds
2:00 AM 72 °F - 70 °F 92% 30.10 in 9 mi SSE 4.5 mph - -   Widespread Dust
2:00 AM 71.6 °F - 69.8 °F 94% 30.09 in 6.2 mi SSE 5.8 mph - N/A   Scattered Clouds
3:00 AM 71.6 °F - 71.6 °F 100% 30.06 in 6.2 mi East 8.1 mph - N/A   Scattered Clouds
4:00 AM 71.6 °F - 71.6 °F 100% 30.06 in 5.0 mi ESE 5.8 mph - N/A Rain Light Rain
5:00 AM 71 °F - 69 °F 92% 30.07 in 10 mi ESE 11.2 mph - -   Partly Cloudy
5:00 AM 69.8 °F - 69.8 °F 100% 30.06 in 6.2 mi ESE 11.5 mph - N/A   Scattered Clouds
6:00 AM 69.8 °F - 69.8 °F 100% 30.06 in 6.2 mi SE 4.6 mph - N/A   Scattered Clouds
7:00 AM 69.8 °F - 69.8 °F 100% 30.09 in 6.2 mi ESE 6.9 mph - N/A   Scattered Clouds
8:00 AM 70 °F - 67 °F 87% 30.10 in 3 mi ESE 6.7 mph - -   Mist
8:00 AM 69.8 °F - 66.2 °F 88% 30.09 in 3.1 mi ESE 8.1 mph - N/A   Mostly Cloudy
9:00 AM 73.4 °F - 69.8 °F 88% 30.12 in 6.2 mi SSE 5.8 mph - N/A   Mostly Cloudy
10:00 AM 77.0 °F - 69.8 °F 78% 30.12 in 6.2 mi ESE 12.7 mph - N/A   Mostly Cloudy
11:00 AM 80 °F - 71 °F 66% 30.13 in 6 mi SE 17.9 mph - -   Widespread Dust
11:00 AM 78.8 °F - 71.6 °F 78% 30.12 in 6.2 mi SE 9.2 mph - N/A   Mostly Cloudy
12:00 PM 82.4 °F 87.2 °F 71.6 °F 70% 30.09 in 6.2 mi ESE 16.1 mph - N/A   Mostly Cloudy
1:00 PM 84.2 °F 86.6 °F 66.2 °F 55% 30.06 in 6.2 mi SSE 13.8 mph - N/A   Mostly Cloudy
2:00 PM 86.0 °F 90.4 °F 69.8 °F 58% 30.04 in 6.2 mi SE 11.5 mph - N/A   Mostly Cloudy
3:00 PM 87.8 °F 92.6 °F 69.8 °F 55% 30.01 in 6.2 mi East 23.0 mph - N/A   Scattered Clouds
4:00 PM 78.8 °F - 73.4 °F 83% 30.01 in 4.3 mi ESE 18.4 mph - N/A Rain Rain
5:00 PM - - 72 °F % 30.01 in 0 mi NNE 147.7 mph - -   Widespread Dust
5:00 PM 80.6 °F 84.6 °F 71.6 °F 74% 30.01 in 6.2 mi ESE 11.5 mph - N/A   Scattered Clouds
6:00 PM 82.4 °F 85.4 °F 68.0 °F 62% 30.01 in 6.2 mi East 13.8 mph - N/A   Scattered Clouds
7:00 PM 78.8 °F - 68.0 °F 69% 30.01 in 6.2 mi ESE 13.8 mph - N/A   Partly Cloudy
8:00 PM 76 °F - 69 °F 73% 30.04 in 9 mi ESE 8.9 mph - -   Widespread Dust
8:00 PM 75.2 °F - 69.8 °F 83% 30.04 in 6.2 mi ESE 9.2 mph - N/A   Partly Cloudy
9:00 PM 77.0 °F - 69.8 °F 78% 30.09 in 6.2 mi ESE 9.2 mph - N/A   Partly Cloudy
10:00 PM 75.2 °F - 69.8 °F 83% 30.06 in 6.2 mi SE 6.9 mph - N/A   Partly Cloudy
11:00 PM 74 °F - 71 °F 86% 30.08 in 9 mi SSE 6.7 mph - -   Widespread Dust
11:00 PM 73.4 °F - 69.8 °F 88% 30.06 in 6.2 mi SSE 6.9 mph - N/A   Partly Cloudy